Ortonville, MN

9:47 PM CDT on May 25, 2018 (GMT -0500)
Ortonville Municipal-Martinson

Weather History for KVVV - March, 2014

Change the Weather History Date:

Monday, March 17, 2014

  Actual Average (KAQP) Record (KAQP)
Temperature  
Mean Temperature 40 °F -  
Max Temperature 48 °F 34 °F 78 °F (2012)
Min Temperature 32 °F 17 °F 3 °F (2001)
Degree Days  
Heating Degree Days 25    
Moisture  
Dew Point 25 °F    
Average Humidity 58    
Maximum Humidity 81    
Minimum Humidity 43    
Precipitation  
Precipitation 0.00 in - - ()
Sea Level Pressure  
Sea Level Pressure 29.52 in    
Wind  
Wind Speed 10 mph (SE)    
Max Wind Speed 16 mph    
Max Gust Speed 21 mph    
Visibility 10 miles    
Events Rain    
Averages and records for this station are not official NWS values.
T = Trace of Precipitation, MM = Missing Value Source: NWS Daily Summary

Daily Weather History Graph

Daily Weather History Graph

Search for Another Location

Airport or City:

Astronomy

Mar. 17, 2014 Rise Set
Actual Time 7:34 AM CDT 7:34 PM CDT
Civil Twilight 7:04 AM CDT 8:03 PM CDT
Nautical Twilight 6:30 AM CDT 8:38 PM CDT
Astronomical Twilight 5:55 AM CDT 9:13 PM CDT
Moon 8:57 PM CDT (3/17) 7:47 AM CDT (3/17)
Length of Visible Light 12h 58m
Length of Day
11h 59m
Full, 99% of the Moon is Illuminated
Mar 17
Full
Mar 23
Last Quarter
Mar 30
New
Apr 7
First Quarter
Apr 15
Full

Hourly Weather History & Observations

Time (CDT) Temp. Windchill Dew Point Humidity Pressure Visibility Wind Dir Wind Speed Gust Speed Precip Events Conditions
12:13 AM 33.8 °F 23.9 °F 17.6 °F 52% 29.77 in 10.0 mi South 15.0 mph - N/A   Clear
12:34 AM 33.8 °F 24.8 °F 19.4 °F 56% 29.76 in 10.0 mi South 12.7 mph 20.7 mph N/A   Clear
12:53 AM 33.8 °F 23.9 °F 19.4 °F 56% 29.74 in 10.0 mi South 15.0 mph 19.6 mph N/A   Clear
1:14 AM 33.8 °F 24.8 °F 19.4 °F 56% 29.72 in 10.0 mi South 12.7 mph - N/A   Clear
1:34 AM 33.8 °F 25.3 °F 19.4 °F 56% 29.70 in 10.0 mi South 11.5 mph - N/A   Clear
1:53 AM 33.8 °F 24.3 °F 19.4 °F 56% 29.69 in 10.0 mi South 13.8 mph - N/A   Mostly Cloudy
2:14 AM 35.6 °F 27.5 °F 19.4 °F 52% 29.68 in 10.0 mi South 11.5 mph 19.6 mph N/A   Scattered Clouds
2:34 AM 35.6 °F 28.0 °F 19.4 °F 52% 29.67 in 10.0 mi South 10.4 mph - N/A   Clear
2:53 AM 35.6 °F 27.5 °F 17.6 °F 48% 29.65 in 10.0 mi South 11.5 mph 18.4 mph N/A   Scattered Clouds
3:14 AM 35.6 °F 29.9 °F 19.4 °F 52% 29.65 in 10.0 mi South 6.9 mph - N/A   Mostly Cloudy
3:34 AM 35.6 °F 31.7 °F 19.4 °F 52% 29.65 in 10.0 mi SSE 4.6 mph - N/A   Light Drizzle
3:53 AM 35.6 °F 29.2 °F 21.2 °F 56% 29.64 in 10.0 mi South 8.1 mph - N/A Rain Rain
4:14 AM 35.6 °F 30.7 °F 21.2 °F 56% 29.63 in 10.0 mi SSW 5.8 mph - N/A Rain Light Rain
4:34 AM 35.6 °F 28.6 °F 21.2 °F 56% 29.60 in 10.0 mi South 9.2 mph - N/A   Overcast
4:53 AM 35.6 °F 29.9 °F 21.2 °F 56% 29.60 in 10.0 mi South 6.9 mph - N/A   Overcast
5:14 AM 35.6 °F 29.2 °F 23.0 °F 60% 29.58 in 10.0 mi South 8.1 mph - N/A   Light Drizzle
5:34 AM 33.8 °F 27.0 °F 21.2 °F 60% 29.58 in 10.0 mi South 8.1 mph - N/A   Overcast
5:53 AM 35.6 °F 29.9 °F 21.2 °F 56% 29.57 in 10.0 mi South 6.9 mph - N/A   Overcast
6:14 AM 33.8 °F 29.6 °F 21.2 °F 60% 29.57 in 10.0 mi SSE 4.6 mph - N/A   Overcast
6:34 AM 33.8 °F 26.4 °F 21.2 °F 60% 29.54 in 10.0 mi SSE 9.2 mph - N/A   Scattered Clouds
6:53 AM 33.8 °F 26.4 °F 21.2 °F 60% 29.53 in 10.0 mi South 9.2 mph - N/A   Clear
7:14 AM 32.0 °F 24.2 °F 21.2 °F 64% 29.51 in 10.0 mi SE 9.2 mph - N/A   Clear
7:34 AM 32.0 °F 24.2 °F 21.2 °F 64% 29.53 in 10.0 mi SSE 9.2 mph - N/A   Clear
7:54 AM 32.0 °F 24.2 °F 21.2 °F 64% 29.52 in 10.0 mi South 9.2 mph - N/A   Clear
8:14 AM 32.0 °F 26.4 °F 21.2 °F 64% 29.51 in 10.0 mi SSE 5.8 mph - N/A   Scattered Clouds
8:34 AM 33.8 °F 29.6 °F 21.2 °F 60% 29.52 in 10.0 mi South 4.6 mph - N/A   Clear
8:53 AM 33.8 °F 28.6 °F 23.0 °F 65% 29.51 in 10.0 mi SSE 5.8 mph - N/A   Clear
9:14 AM 35.6 °F 31.7 °F 23.0 °F 60% 29.50 in 10.0 mi SSE 4.6 mph - N/A   Clear
9:34 AM 35.6 °F 31.7 °F 23.0 °F 60% 29.49 in 10.0 mi SSE 4.6 mph - N/A   Clear
9:53 AM 37.4 °F 32.1 °F 23.0 °F 56% 29.48 in 10.0 mi South 6.9 mph - N/A   Clear
10:14 AM 39.2 °F 35.0 °F 23.0 °F 52% 29.48 in 10.0 mi South 5.8 mph - N/A   Clear
10:33 AM 39.2 °F 35.0 °F 23.0 °F 52% 29.48 in 10.0 mi South 5.8 mph - N/A   Clear
10:54 AM 42.8 °F 40.1 °F 24.8 °F 49% 29.47 in 10.0 mi South 4.6 mph - N/A   Clear
11:14 AM 42.8 °F 40.1 °F 24.8 °F 49% 29.47 in 10.0 mi South 4.6 mph - N/A   Clear
11:33 AM 44.6 °F 43.1 °F 24.8 °F 46% 29.46 in 10.0 mi SSE 3.5 mph - N/A   Scattered Clouds
11:54 AM 44.6 °F 43.1 °F 24.8 °F 46% 29.47 in 10.0 mi ESE 3.5 mph - N/A   Scattered Clouds
12:14 PM 46.4 °F - 26.6 °F 46% 29.47 in 10.0 mi Calm Calm - N/A   Scattered Clouds
12:33 PM 46.4 °F 44.3 °F 26.6 °F 46% 29.46 in 10.0 mi East 4.6 mph - N/A   Scattered Clouds
12:54 PM 48.2 °F - 26.6 °F 43% 29.45 in 10.0 mi East 3.5 mph - N/A   Clear
1:14 PM 48.2 °F - 26.6 °F 43% 29.45 in 10.0 mi East 3.5 mph - N/A   Clear
1:33 PM 48.2 °F - 28.4 °F 46% 29.44 in 10.0 mi ESE 8.1 mph - N/A   Clear
1:54 PM 48.2 °F - 28.4 °F 46% 29.45 in 10.0 mi East 6.9 mph - N/A   Clear
2:13 PM 48.2 °F - 28.4 °F 46% 29.44 in 10.0 mi East 8.1 mph - N/A   Clear
2:34 PM 48.2 °F - 28.4 °F 46% 29.45 in 10.0 mi SE 4.6 mph - N/A   Clear
2:54 PM 48.2 °F - 28.4 °F 46% 29.44 in 10.0 mi ENE 5.8 mph - N/A   Clear
3:13 PM 48.2 °F - 30.2 °F 50% 29.44 in 10.0 mi ESE 9.2 mph - N/A   Clear
3:34 PM 48.2 °F - 30.2 °F 50% 29.42 in 10.0 mi East 10.4 mph - N/A   Clear
3:54 PM 48.2 °F - 30.2 °F 50% 29.40 in 10.0 mi East 11.5 mph - N/A   Clear
4:13 PM 48.2 °F - 30.2 °F 50% 29.43 in 10.0 mi SE 10.4 mph - N/A   Clear
4:34 PM 46.4 °F 41.5 °F 30.2 °F 53% 29.43 in 10.0 mi East 10.4 mph - N/A   Clear
4:54 PM 48.2 °F - 30.2 °F 50% 29.43 in 10.0 mi ESE 13.8 mph - N/A   Clear
5:13 PM 48.2 °F - 32.0 °F 54% 29.43 in 10.0 mi ESE 11.5 mph - N/A   Clear
5:34 PM 46.4 °F 40.1 °F 32.0 °F 57% 29.43 in 10.0 mi ESE 15.0 mph - N/A   Clear
5:53 PM 46.4 °F 40.7 °F 32.0 °F 57% 29.44 in 10.0 mi ESE 12.7 mph - N/A   Clear
6:14 PM 46.4 °F 40.7 °F 32.0 °F 57% 29.44 in 10.0 mi ESE 12.7 mph - N/A   Clear
6:34 PM 44.6 °F 38.8 °F 32.0 °F 61% 29.44 in 10.0 mi East 11.5 mph - N/A   Clear
6:53 PM 44.6 °F 38.8 °F 32.0 °F 61% 29.45 in 10.0 mi ESE 11.5 mph - N/A   Clear
7:14 PM 42.8 °F 36.6 °F 32.0 °F 66% 29.45 in 10.0 mi East 11.5 mph - N/A   Clear
7:34 PM 41.0 °F 34.3 °F 32.0 °F 70% 29.46 in 10.0 mi East 11.5 mph - N/A   Clear
7:53 PM 39.2 °F 32.0 °F 30.2 °F 70% 29.46 in 10.0 mi East 11.5 mph - N/A   Clear
8:14 PM 39.2 °F 30.8 °F 30.2 °F 70% 29.47 in 10.0 mi East 15.0 mph 18.4 mph N/A   Clear
8:34 PM 37.4 °F 28.2 °F 30.2 °F 75% 29.49 in 10.0 mi East 16.1 mph - N/A   Clear
8:54 PM 37.4 °F 28.2 °F 30.2 °F 75% 29.51 in 10.0 mi East 16.1 mph - N/A   Clear
9:14 PM 37.4 °F 28.5 °F 30.2 °F 75% 29.52 in 10.0 mi East 15.0 mph - N/A   Clear
9:33 PM 35.6 °F 26.2 °F 28.4 °F 75% 29.52 in 10.0 mi East 15.0 mph - N/A   Clear
9:54 PM 35.6 °F 28.0 °F 28.4 °F 75% 29.53 in 10.0 mi ENE 10.4 mph - N/A   Clear
10:14 PM 35.6 °F 27.1 °F 28.4 °F 75% 29.52 in 10.0 mi ENE 12.7 mph - N/A   Clear
10:33 PM 35.6 °F 26.6 °F 28.4 °F 75% 29.53 in 10.0 mi ENE 13.8 mph 18.4 mph N/A   Scattered Clouds
10:54 PM 35.6 °F 28.0 °F 28.4 °F 75% 29.52 in 10.0 mi ENE 10.4 mph 16.1 mph N/A   Scattered Clouds
11:14 PM 33.8 °F 25.3 °F 28.4 °F 81% 29.52 in 10.0 mi ENE 11.5 mph 19.6 mph N/A   Scattered Clouds
11:33 PM 33.8 °F 24.3 °F 28.4 °F 81% 29.53 in 10.0 mi ENE 13.8 mph - N/A   Scattered Clouds
11:54 PM 33.8 °F 24.8 °F 28.4 °F 81% 29.54 in 10.0 mi ENE 12.7 mph 17.3 mph N/A   Scattered Clouds